TIME,DELAY(SENSOR),PRES,T(CTD),SAL,OXYGEN,RAWTEMP,T(OPTODE),TCPHASE,FLUOR,BETA(BETA700),BETA(BETA412),BETA(BETA440),CDOM,C(CSC),ED(ED411.90),ED(ED443.80),ED(ED489.40),ED(ED554.70),LU(LU412.20),LU(LU443.80),LU(LU489.40),LU(LU555.00),COMP,TILTX,TILTX(TILTY),CHECK
1349795509,5805,495.9599914550781000,16.8864002227783200,36.3432006835937500,220.0498962402343800,192.2687072753906200,16.8813896179199220,31.9904899597167970,51,101,79,61,50,13026,2146958189,2147517028,2147270445,2147473078,2147086409,2146954614,2147655670,2147125001,1247,-1,8,23907
1349795630,5805,485.5199890136719000,17.0492000579834000,36.3745002746582000,222.9730987548828000,186.8477020263672000,17.0448303222656250,31.7631607055664060,51,101,80,61,50,13025,2146958089,2147518345,2147271442,2147473819,2147083520,2146955410,2147652790,2147123666,665,-1,8,59997
1349795764,5805,473.9599914550781000,17.2280998229980470,36.4108009338378900,226.1979980468750000,180.8688964843750000,17.2251300811767580,31.5158596038818360,51,101,80,61,50,13022,2146950390,2147517814,2147268233,2147469714,2147083803,2146957440,2147654820,2147121910,3380,-2,8,13080
1349795885,5803,463.3599853515625000,17.3120994567871100,36.4263000488281250,227.8078002929687500,178.0440979003906200,17.3103294372558600,31.3959102630615230,50,100,80,60,50,13025,2146957165,2147518692,2147268077,2147469001,2147086692,2146957074,2147655442,2147120923,2884,-2,8,27355
1349796009,5807,452.6700134277344000,17.4202995300292970,36.4482002258300800,228.9562988281250000,174.5959014892578000,17.4143390655517580,31.2913398742675780,51,102,80,60,50,13026,2146958272,2147519670,2147268809,2147467922,2147087506,2146956809,2147655606,2147115840,1796,-2,8,46157
1349796142,5806,441.2099914550781000,17.5076999664306640,36.4641990661621100,230.2747955322265600,171.7583007812500000,17.4999504089355470,31.1871604919433600,51,103,80,61,50,13023,2146957302,2147520466,2147268096,2147469293,2147085238,2146959835,2147655945,2147122596,1414,-1,8,21943
1349796274,5804,430.2200012207031000,17.5977993011474600,36.4824981689453100,232.0863037109375000,168.6654052734375000,17.5932807922363280,31.0559196472167970,50,102,79,61,50,13023,2146954614,2147514660,2147266240,2147467748,2147085924,2146956205,2147653485,2147121097,1022,-1,8,8222
1349796408,5809,419.2799987792969000,17.6767005920410160,36.4972000122070300,233.2651977539062500,166.0148925781250000,17.6732692718505860,30.9624900817871100,50,102,79,61,50,13021,2146955949,2147513298,2147267245,2147465536,2147083986,2146961325,2147658688,2147121984,3545,-1,9,64883
1349796540,5804,408.6799926757812500,17.7411003112792970,36.5092010498046900,234.2716064453125000,163.7884979248047000,17.7404708862304700,30.8837299346923830,50,100,78,61,50,13024,2146955474,2147515145,2147266806,2147464804,2147083062,2146956288,2147653942,2147119497,2483,-1,8,40212
1349796675,5808,398.0100097656250000,17.8073005676269530,36.5209999084472660,234.5834960937500000,161.6717987060547000,17.8043708801269530,30.8400993347167970,50,102,80,62,50,13023,2146955300,2147517558,2147265792,2147465280,2147085257,2146962093,2147652361,2147119369,1712,-1,8,34641
1349796818,5804,386.6199951171875000,17.8766994476318360,36.5315017700195300,234.9210968017578000,159.3769073486328000,17.8736495971679700,30.7930107116699220,50,102,80,62,50,13023,2146958006,2147517568,2147263826,2147466642,2147084150,2146956260,2147651730,2147120128,1264,-1,8,46784
1349796961,5808,374.2399902343750000,17.9444999694824220,36.5415000915527340,235.1882934570312500,157.0552062988281200,17.9437503814697270,30.7489490509033200,50,102,79,61,50,13019,2146955190,2147517037,2147266971,2147463670,2147086820,2146958765,2147650752,2147122221,479,-2,8,29587
1349797073,5805,362.2200012207031000,17.9953002929687500,36.5481986999511700,234.8424072265625000,155.3569030761718800,17.9950408935546880,30.7430496215820300,50,103,79,60,50,13018,2146956836,2147519360,2147268041,2147463195,2147088402,2146959990,2147651684,2147117851,3312,-1,8,2429
1349797161,5805,352.0499877929687500,18.0331001281738280,36.5507011413574200,234.1670989990234400,154.1645965576172000,18.0310401916503900,30.7595405578613280,50,102,79,61,50,13013,2146954176,2147515821,2147265334,2147463067,2147086089,2146959698,2147652068,2147127853,2755,-2,8,23563
1349797271,5804,339.4800109863281000,18.0820999145507800,36.5541992187500000,232.2787017822265600,152.6605987548828000,18.0764694213867200,30.8311004638671880,50,101,79,61,50,13016,2146955675,2147516498,2147265325,2147461028,2147085970,2146958628,2147649490,2147126592,1639,-2,8,17900
1349797378,5803,328.3699951171875000,18.1371002197265620,36.5642013549804700,232.9017028808593800,150.8589935302734400,18.1308898925781250,30.7766094207763670,51,100,80,60,50,13014,2146955446,2147514889,2147265252,2147460909,2147088201,2146956973,2147652498,2147124013,1297,-2,8,37782
1349797488,5805,316.9299926757812500,18.1800003051757800,36.5691986083984400,232.4275970458984400,149.4557037353515600,18.1732807159423830,30.7811908721923830,50,102,79,60,50,13014,2146956324,2147515474,2147267181,2147462208,2147084891,2146957458,2147650112,2147125266,732,-2,9,8504
1349797610,5806,305.8699951171875000,18.2178001403808600,36.5736999511718750,232.4951019287109400,148.1338958740234400,18.2132205963134770,30.7599296569824220,50,102,79,60,49,13013,2146954715,2147514944,2147265152,2147458925,2147086774,2146956845,2147647405,2147121682,855,-2,9,18578
1349797775,5805,295.2500000000000000,18.2607002258300780,36.5806007385253900,232.6486968994140600,146.7740020751953000,18.2543106079101560,30.7345104217529300,51,103,79,62,50,13012,2146955739,2147515776,2147263195,2147462308,2147087552,2146956928,2147651053,2147122029,342,-1,9,21155
1349797939,5805,283.6799926757812500,18.3117008209228500,36.5831985473632800,231.7127990722656200,145.0605926513672000,18.3060798645019530,30.7571201324462900,50,102,80,61,50,13014,2146952557,2147516416,2147265947,2147462985,2147085504,2146957833,2147648164,2147129188,2903,-2,8,32567
1349798082,5805,272.2500000000000000,18.3878002166748050,36.5876007080078100,230.0930023193359400,142.6172027587890600,18.3799304962158200,30.8041095733642580,50,102,80,60,50,13008,2146956964,2147515958,2147263744,2147461504,2147084608,2146960301,2147652379,2147123885,2205,-2,9,33980
1349798227,5805,260.3500061035156000,18.5209999084472660,36.5956001281738300,228.7962951660156200,137.8674011230468800,18.5235195159912100,30.8048191070556640,50,102,79,60,49,13011,2146954194,2147514779,2147263085,2147460242,2147083995,2146960192,2147650724,2147127259,2152,-2,8,22800
1349798348,5805,249.3200073242187500,18.6555004119873050,36.6076011657714840,227.1183929443359400,133.1107025146484400,18.6673698425292970,30.8248691558837900,51,101,79,60,50,13012,2146954889,2147516032,2147263488,2147460288,2147087433,2146961654,2147647588,2147128109,1320,-1,9,4849
1349798472,5804,238.1900024414062500,18.7749996185302730,36.5957984924316400,229.4020996093750000,129.3939056396484400,18.7798194885253900,30.6618404388427730,51,99,79,61,50,13015,2146959323,2147514523,2147264420,2147461577,2147084022,2146962532,2147648896,2147131382,1012,-1,9,31448
1349798593,5803,227.3300018310547000,18.9601993560791000,36.6007995605468750,231.7962036132812500,123.1094970703125000,18.9700107574462900,30.4616909027099600,50,101,79,60,50,13016,2146955812,2147515465,2147262473,2147459254,2147081984,2146960740,2147645741,2147128841,100,-1,8,42774
1349798714,5805,215.7899932861328000,19.0976009368896500,36.5886993408203100,237.1548004150390600,119.0992965698242200,19.0914306640625000,30.1521091461181640,52,101,80,61,50,13011,2146954962,2147515721,2147260105,2147458294,2147085504,2146966070,2147652882,2147127981,3348,-2,9,19657
1349798827,5805,204.9900054931640600,19.1623992919921880,36.5819015502929700,241.4593963623047000,116.7832031250000000,19.1615791320800780,29.9206504821777340,51,101,78,62,50,13010,2146956772,2147516928,2147261952,2147455058,2147085568,2146965842,2147653997,2147127250,2409,-1,8,65336
1349798904,5809,197.5599975585937500,19.2143993377685550,36.5774993896484400,245.0447998046875000,115.1539993286132800,19.2109394073486330,29.7353305816650400,50,102,79,61,50,13015,2146954669,2147515474,2147265152,2147455460,2147083885,2146966052,2147654573,2147128265,2607,-1,8,28611
1349798959,5807,192.2899932861328000,19.2399005889892580,36.5772018432617200,246.4058074951172000,114.0678024291992200,19.2438392639160160,29.6598091125488280,50,102,80,61,49,13011,2146956809,2147516278,2147260608,2147456064,2147085430,2146965906,2147652553,2147128521,2303,-2,9,32647
1349799014,5805,187.1399993896484400,19.2828006744384770,36.5788002014160160,247.6208038330078000,112.7724990844726600,19.2830905914306640,29.5884304046630860,51,103,79,61,49,13010,2146959177,2147515684,2147265856,2147456036,2147081810,2146965641,2147657051,2147127195,1975,-1,8,17470
1349799069,5808,182.0299987792968800,19.3057994842529300,36.5792007446289060,247.6058959960937500,111.9608993530273400,19.3076896667480470,29.5786399841308600,51,103,79,62,50,13011,2146954176,2147518134,2147262738,2147456923,2147084516,2146969673,2147661430,2147126710,1879,-1,9,57525
1349799143,5805,175.5599975585937500,19.3346996307373050,36.5769004821777340,248.5366058349609400,111.1033020019531200,19.3336791992187500,29.5259990692138670,52,102,79,59,48,13009,2146959625,2147517156,2147261129,2147455725,2147082422,2146971172,2147659949,2147129536,1937,-1,9,26101
1349799198,5809,171.2100067138672000,19.3810997009277340,36.5765991210937500,248.5971984863281200,109.6734008789062500,19.3770198822021500,29.5048809051513670,54,106,80,61,49,13003,2146957376,2147514523,2147263405,2147456676,2147086098,2146967808,2147664155,2147128649,1754,-2,9,24552
1349799253,5804,167.1100006103515600,19.4036998748779300,36.5773010253906250,248.8775024414062500,109.0109024047851600,19.3971004486084000,29.4838294982910160,54,105,80,61,50,13004,2146959241,2147517997,2147262262,2147457801,2147080640,2146975277,2147664566,2147128109,1247,-2,9,38937
1349799308,5806,163.1499938964843800,19.4204998016357420,36.5765991210937500,249.3800048828125000,108.2493972778320300,19.4201793670654300,29.4515800476074220,56,106,80,62,50,13002,2146955456,2147515291,2147262802,2147455442,2147076260,2146971337,2147668205,2147128704,772,-2,9,56304
1349799374,5806,158.4700012207031200,19.4661006927490230,36.5820999145507800,248.9951019287109400,106.6791992187500000,19.4677906036376950,29.4484596252441400,57,109,79,62,50,13000,2146954432,2147513782,2147263442,2147455844,2147085522,2146977453,2147672914,2147128384,706,-1,9,61826
1349799452,5806,153.5800018310547000,19.5415992736816400,36.5903015136718750,248.0122985839843800,104.0743026733398400,19.5467796325683600,29.4584999084472660,63,110,80,61,50,12995,2146956416,2147517074,2147264036,2147453787,2147085083,2146978496,2147670912,2147124845,312,-2,9,64589
1349799529,5807,149.5200042724609400,19.6173000335693360,36.5979995727539060,246.8923950195312500,101.9231033325195300,19.6120300292968750,29.4810009002685550,69,119,81,61,50,12988,2146956790,2147517942,2147262226,2147453833,2147082724,2146980873,2147680475,2147128987,3537,-1,9,24128
1349799606,5805,145.4799957275390600,19.6746997833251950,36.6039009094238300,246.1855926513672000,99.9030303955078100,19.6733207702636720,29.4865093231201170,73,115,81,62,50,12982,2146950829,2147515547,2147263990,2147456393,2147090660,2146988973,2147685732,2147129344,3469,-1,9,13907
1349799683,5805,141.3500061035156200,19.7441005706787100,36.6115989685058600,245.8981933593750000,97.8591690063476600,19.7353401184082030,29.4730300903320300,80,116,79,61,50,12979,2146956544,2147520301,2147266368,2147454125,2147087305,2146990089,2147690642,2147130724,3464,-2,9,62525
1349799751,5806,137.5399932861328000,19.7938995361328120,36.6130981445312500,246.2586975097656200,95.9913482666015600,19.7920303344726560,29.4325695037841800,82,117,81,61,50,12978,2146957504,2147515373,2147264740,2147453120,2147085248,2147000832,2147693842,2147132169,230,-1,8,11271
1349799828,5808,133.4499969482422000,19.8799991607666000,36.6212997436523440,246.4618988037109400,93.4589996337890600,19.8689098358154300,29.3911800384521500,87,116,80,60,50,12976,2146953645,2147517613,2147264448,2147450313,2147085394,2147008082,2147704128,2147132470,164,-2,9,26553
1349799905,5806,129.6300048828125000,19.8875999450683600,36.6223983764648440,246.2557067871093800,93.0183868408203100,19.8822898864746100,29.3945598602294920,90,115,79,61,50,12975,2146954432,2147519643,2147264822,2147451629,2147090230,2147005696,2147713691,2147133120,3143,-2,9,38881
1349799993,5804,125.5100021362304700,19.9713993072509770,36.6253013610839840,246.4687957763672000,90.3672409057617200,19.9628105163574220,29.3510093688964840,94,121,82,61,50,12967,2146955291,2147516370,2147262052,2147451739,2147098733,2147023753,2147728740,2147131108,3069,-1,9,13610
1349800094,5805,121.8099975585937500,20.0636997222900400,36.6319007873535160,246.8860931396484400,87.1644515991211000,20.0601100921630860,29.2913398742675780,93,121,81,61,50,12966,2146956160,2147517513,2147265673,2147450038,2147093952,2147025069,2147737462,2147133129,3324,-2,9,36065
1349800215,5806,118.0500030517578100,20.2105998992919920,36.6407012939453100,248.3885955810547000,82.2619171142578100,20.2091197967529300,29.1618309020996100,104,121,81,61,50,12954,2146956434,2147518729,2147263286,2147452854,2147097581,2147036388,2147746944,2147132324,131,-2,9,6560
1349800336,5804,114.0599975585937500,20.4099998474121100,36.6548995971679700,246.6708984375000000,76.0988616943359400,20.3965606689453120,29.1593704223632800,121,123,82,61,50,12947,2146957376,2147519113,2147267419,2147451053,2147104292,2147046390,2147758061,2147133046,2982,-1,9,27050
1349800432,5809,109.2300033569336000,20.5858993530273440,36.6702003479003900,246.4358978271484400,70.1941680908203100,20.5762901306152340,29.0944404602050780,118,124,81,61,50,12941,2146956589,2147514313,2147267291,2147449645,2147120557,2147064210,2147789787,2147138587,2743,-2,9,55181
1349800498,5803,105.0999984741211000,20.7231998443603500,36.6740989685058600,245.8372955322265600,66.1990890502929700,20.6979808807373050,29.0704307556152340,128,123,82,61,50,12927,2146957741,2147519844,2147268525,2147447168,2147131318,2147101403,2147815606,2147139044,2495,-1,9,62939
1349800564,5808,100.7799987792968800,20.8276004791259770,36.6579017639160160,250.1645965576172000,62.2162094116210940,20.8193492889404300,28.8288993835449220,131,123,82,62,50,12918,2146959049,2147522633,2147270080,2147447094,2147146349,2147123163,2147849755,2147145654,2616,-2,9,48014
1349800619,5802,97.5100021362304700,20.9419002532959000,36.6702995300293000,252.8836059570312500,58.8169212341308600,20.9229907989501950,28.6682395935058600,133,119,83,61,50,12922,2146958281,2147520694,2147270985,2147449371,2147163355,2147153947,2147878025,2147145078,2468,-2,9,15364
1349800674,5805,94.8399963378906200,20.9780998229980470,36.6741981506347660,253.9667968750000000,57.2565307617187500,20.9705791473388670,28.6020107269287100,133,120,82,61,50,12923,2146956233,2147525010,2147271222,2147446628,2147175003,2147184923,2147910912,2147151981,2486,-2,9,2169
1349800731,5801,92.4300003051757800,21.0499000549316400,36.6734008789062500,254.7944030761718800,54.9990615844726560,21.0394592285156250,28.5383796691894530,126,120,80,61,50,12925,2146957988,2147526784,2147273353,2147448448,2147194523,2147220013,2147945362,2147153142,2445,-2,9,13226
1349800786,5804,90.5699996948242200,21.1072006225585940,36.6738014221191400,257.8638000488281000,53.0048713684082000,21.1003208160400400,28.3835697174072270,115,120,81,61,50,12920,2146958838,2147525906,2147270710,2147450386,2147209682,2147241060,2147964745,2147157824,2576,-2,9,62144
1349800841,5802,89.2799987792968800,21.2140998840332030,36.6735992431640600,261.0067138671875000,49.5891494750976560,21.2045993804931640,28.2099304199218750,111,117,81,62,50,12927,2146960402,2147525302,2147275858,2147447131,2147230820,2147275803,2148004461,2147162468,3090,-2,9,54315
1349800980,5807,87.8099975585937500,21.4368000030517580,36.6719017028808600,263.3710021972656000,42.9601287841796900,21.4071292877197270,28.0301399230957030,106,119,81,62,49,12930,2146961289,2147525760,2147278189,2147446162,2147248905,2147309714,2148034349,2147163602,3038,-1,9,16005
1349801142,5807,85.1900024414062500,21.7014999389648440,36.6719017028808600,263.3396911621094000,33.9323997497558600,21.6832809448242200,27.9196205139160160,97,118,82,61,50,12920,2146964553,2147531392,2147279661,2147444918,2147304082,2147412004,2148147995,2147172288,2669,-2,9,7710
1349801245,5807,83.6399993896484400,21.9160995483398440,36.6599998474121100,260.3796081542969000,27.3499908447265620,21.8848800659179700,27.9594306945800780,94,122,82,62,50,12919,2146968164,2147537856,2147285184,2147442258,2147365467,2147528630,2148257106,2147186560,1699,-1,9,8777
1349801395,5804,80.8799972534179700,22.0235004425048830,36.6552009582519500,259.7326965332031000,23.1027507781982420,22.0150794982910160,27.9336700439453120,89,123,83,62,49,12918,2146970779,2147544064,2147294372,2147445065,2147496923,2147741019,2148452269,2147204534,2131,-2,9,11714
1349801450,5802,78.6900024414062500,22.0767002105712900,36.6543998718261700,259.9580993652344000,21.2269706726074220,22.0726108551025400,27.9010696411132800,85,124,81,62,49,12912,2146975040,2147550802,2147301056,2147444644,2147580937,2147867721,2148565814,2147215012,2249,-2,9,9931
1349801505,5805,76.2500000000000000,22.2775001525878900,36.6441993713378900,259.7279052734375000,14.7915897369384770,22.2701206207275400,27.8311195373535160,86,125,81,62,50,12908,2146978011,2147556461,2147305974,2147440054,2147673645,2148004251,2148682816,2147229019,2084,-1,9,4491
1349801560,5804,73.9000015258789000,22.4116992950439450,36.6427001953125000,261.9081115722656000,10.6869497299194340,22.3962192535400400,27.6912403106689450,84,124,82,62,50,12906,2146981284,2147558098,2147313654,2147443611,2147770624,2148147830,2148812480,2147241014,2364,-2,9,528
1349801615,5805,71.6399993896484400,22.6021003723144530,36.6277008056640600,262.7486877441406000,5.3136258125305180,22.5614299774169920,27.5911598205566400,89,124,83,63,48,12906,2146987218,2147565814,2147316562,2147442368,2147883529,2148315026,2148952603,2147258742,2442,-2,10,8513
1349801693,5806,68.3399963378906200,22.7905006408691400,36.6411018371582000,265.8186950683594000,0.0470101796090603,22.7235107421875000,27.4031200408935550,82,127,83,62,49,12908,2146995968,2147575149,2147329133,2147444361,2148083940,2148576137,2149171684,2147281984,2193,-1,9,41953
1349801748,5806,65.5299987792968800,22.8390998840332030,36.6268997192382800,266.0627136230469000,-3.1919720172882080,22.8232803344726560,27.3538398742675780,83,124,83,63,50,12911,2147009444,2147588553,2147338624,2147442057,2148291602,2148831250,2149365787,2147307620,2889,-2,9,22340
1349801803,5806,63.1899986267089840,22.9398994445800780,36.6088981628418000,266.1582946777344000,-6.3876810073852540,22.9217605590820300,27.3110008239746100,84,124,83,64,49,12904,2147015725,2147598994,2147346761,2147441993,2148462345,2149043483,2149516909,2147325650,2624,-2,9,5701
1349801858,5803,61.5600013732910160,23.0939998626709000,36.5900001525878900,265.4017028808594000,-11.1522302627563480,23.0687198638916000,27.2832908630371100,81,126,83,63,49,12907,2147020598,2147604662,2147349193,2147443812,2148615405,2149218304,2149642368,2147341156,2166,-2,9,62661
1349801913,5804,60.5499992370605500,23.1263999938964840,36.5847015380859400,265.1007995605469000,-12.5196599960327150,23.1109199523925780,27.2785301208496100,84,124,84,63,49,12908,2147026066,2147607350,2147355904,2147443227,2148706733,2149322185,2149721508,2147350089,1483,-2,9,59559
1349802051,5805,58.2099990844726560,23.2078990936279300,36.5822982788085940,264.7503967285156000,-15.7637500762939450,23.2110805511474600,27.2530498504638670,80,123,83,63,49,12908,2147042880,2147625883,2147370953,2147440868,2149161600,2149842678,2150089590,2147392448,1119,-2,9,21722
1349802130,5808,56.2299995422363300,23.6226997375488280,36.5740013122558600,264.8044128417969000,-27.9255199432373050,23.5871505737304700,27.1033096313476560,80,125,82,62,49,12909,2147059291,2147644086,2147384932,2147441755,2149556434,2150276516,2150400118,2147429412,1240,-2,9,19228
1349802390,5809,53.0999984741210940,24.1919002532959000,36.5288009643554700,267.0539855957031000,-45.6508216857910160,24.1369800567626950,26.8000907897949220,76,124,84,63,49,12907,2147089371,2147675382,2147408740,2147443154,2150248100,2151025700,2150915355,2147493750,927,-1,9,10771
1349802424,5807,52.5400009155273440,24.2028999328613280,36.5279006958007800,266.9695129394531000,-46.7634315490722660,24.1715602874755860,26.7899608612060550,77,126,82,64,50,12899,2147093988,2147680768,2147408557,2147440310,2150348864,2151126326,2150984539,2147507300,940,-1,9,60658
1349802529,5804,50.9399986267089840,24.2227001190185550,36.5297012329101560,265.6217956542969000,-48.0757789611816400,24.2123603820800780,26.8272209167480470,80,125,83,61,49,12898,2147106733,2147687771,2147418176,2147441755,2150595172,2151385307,2151168886,2147531218,3065,-2,9,16007
1349802622,5805,48.8600006103515600,24.4319992065429700,36.5153999328613300,263.9027099609375000,-54.5315208435058600,24.4132595062255860,26.8174991607666000,74,126,83,63,50,12899,2147131446,2147712704,2147437184,2147443419,2151096713,2151904411,2151531373,2147588662,3183,-2,9,10315
1349802679,5809,46.6599998474121100,24.5370006561279300,36.4894981384277340,264.1617126464844000,-56.6833610534668000,24.4802799224853500,26.7813205718994140,73,123,83,62,49,12900,2147158811,2147736256,2147459940,2147444845,2151665892,2152488612,2151937664,2147646061,3510,-1,10,62021
1349802748,5809,44.9399986267089840,24.8356990814209000,36.4655990600585940,263.1550903320312500,-66.4025726318359400,24.7834396362304700,26.7044296264648440,74,125,83,63,49,12902,2147180891,2147755254,2147472758,2147447030,2152175561,2153009600,2152296000,2147695899,3557,-1,9,19238
1349803320,5806,42.6500015258789060,25.9834003448486330,36.4413986206054700,255.9754028320312500,-102.7255020141601600,25.9227504730224600,26.5566291809082030,73,124,83,62,48,12885,2147366729,2147934153,2147612672,2147459062,2156556516,2157552512,2155432054,2148104740,311,-2,9,55616
1349803425,5806,40.9799995422363300,26.1774997711181640,36.4390983581543000,253.4418945312500000,-109.4669036865234400,26.1353702545166000,26.5792808532714840,76,127,84,64,49,12890,2147388946,2147949540,2147626313,2147456978,2156952731,2157915419,2155661888,2148149385,266,-2,9,28171
1349803935,5808,38.7400016784668000,26.9190006256103500,36.4081001281738300,241.8170928955078000,-133.5794982910156200,26.8990707397460940,26.7776508331298830,70,119,80,62,49,12912,2147431606,2147968146,2147626706,2147453696,2157653229,2158198262,2155594624,2148158208,3498,-2,9,32437
1349804159,5809,36.8499984741210940,27.0554008483886720,36.3676986694335940,238.1546020507812500,-138.2617950439453000,27.0479602813720700,26.8801002502441400,67,116,80,62,47,12918,2147574436,2148092946,2147707675,2147461705,2160959478,2161329874,2157595136,2148452626,3562,-1,9,51816
1349804240,5807,34.6199989318847660,27.0946006774902340,36.3511009216308600,237.1166992187500000,-139.6920928955078000,27.0934906005859380,26.9083900451660160,68,114,80,62,47,12924,2147699081,2148193728,2147779913,2147471021,2163995885,2164087177,2159291044,2148709110,2847,-1,9,55416
1349804297,5808,32.7599983215332000,27.1362991333007800,36.2952003479003900,236.5223999023437500,-140.8943023681640600,27.1317691802978500,26.9200706481933600,66,113,80,62,49,12919,2147786779,2148268388,2147826678,2147480914,2166192365,2166063259,2160522541,2148935579,3568,-2,9,2245
1349804354,5807,30.7000007629394530,27.1345005035400400,36.2846984863281250,235.9716949462890600,-141.0234985351562500,27.1358795166015620,26.9427604675292970,65,113,81,62,49,12928,2147875017,2148335808,2147881609,2147493769,2168274944,2167952091,2161728155,2149175497,229,-1,9,1023